Regional Weather Roundup
Issued by NWS Kansas City/Pleasant Hill, MO

Home | Current Version | Previous Version | Graphics & Text | Print | Product List | Glossary Off
Versions: 1 2 3 4 5 6 7 8 9 10 11 12 13 14 15 16 17 18 19 20 21 22 23 24 25 26 27 28 29 30 31 32 33 34 35 36 37 38 39 40 41 42 43 44 45 46 47 48 49 50

907
ASUS43 KEAX 281010
RWREAX

WEATHER ROUNDUP FOR EASTERN KANSAS AND NORTHWEST MISSOURI
NATIONAL WEATHER SERVICE KANSAS CITY/PLEASANT HILL MO
500 AM CDT THU JUL 28 2016

KSZ040-057-103>105-MOZ028-029-037-043-281100-
...KANSAS CITY METROPOLITAN AREA...

CITY           SKY/WX    TMP DP  RH WIND       PRES   REMARKS
K.C. INTL      PTCLDY    70  69  97 N3        29.93F
K.C. DOWNTOWN  CLEAR     75  72  90 N3        29.91F
LEES SUMMIT    CLEAR     74  71  91 CALM      29.94S
OLATHE - IXD   CLEAR     73  70  90 CALM      29.94F
OLATHE - OJC   PTCLDY    74  70  87 CALM      29.93F
LAWRENCE       PTCLDY    70  69  97 CALM      29.93F

$$

MOZ001>008-011>017-020>025-030>033-038>040-044>046-053-054-281100-
...NORTHERN AND CENTRAL MISSOURI...

CITY           SKY/WX    TMP DP  RH WIND       PRES   REMARKS
ST. JOSEPH     PTCLDY    69  68  96 NE5       29.93F FOG
MOSBY          SUNNY     70  70 100 CALM      29.93R
WHITEMAN AFB   PTCLDY    73  73 100 SW2       29.92R
CLINTON        CLOUDY    73  73 100 CALM      29.93S FOG
SEDALIA        CLEAR     74  71  91 NW3       29.93R
WARSAW         NOT AVBL
CHILLICOTHE      N/A     71  69  93 CALM      29.93S
KIRKSVILLE     FOG       67  66  97 CALM      29.92F VSB 3/4

$$

MOZ041-047>049-056>058-063>065-088>090-097-281100-
...EASTERN AND SOUTHERN MISSOURI...

CITY           SKY/WX    TMP DP  RH WIND       PRES   REMARKS
ST. LOUIS INTL PTCLDY    78  73  84 CALM      29.87F
SPIRIT OF STL  CLEAR     74  73  97 SW3       29.86F
COLUMBIA       CLEAR     74  73  97 W5        29.91S
JEFFERSON CITY CLEAR     73  71  93 CALM      29.90R
ROLLA          CLEAR     69  68  96 SW5       29.91S
OSAGE BEACH    CLEAR     73  72  96 W3        29.93R
SPRINGFIELD    CLEAR     71  68  90 SW5       29.96R
BRANSON        PTCLDY    72  72 100 CALM      29.97S
JOPLIN         CLEAR     72  70  93 CALM      29.95S
WEST PLAINS    CLEAR     71  68  90 S5        29.96R

$$

IAZ060-094-KSZ022-034>040-054-083-096-NEZ052-066-093-281100-
...KANSAS...SOUTHEAST NEBRASKA AND IOWA...

CITY           SKY/WX    TMP DP  RH WIND       PRES   REMARKS
TOPEKA         PTCLDY    70  68  93 NW5       29.95S
MANHATTAN      PTCLDY    71  68  90 CALM      29.96S
EMPORIA        PTCLDY    74  72  93 CALM      29.96S
CHANUTE        CLEAR     75  73  93 W3        29.94S
WICHITA        MOCLDY    74  70  87 SW3       29.97S
OMAHA          MOCLDY    71  68  90 N10       29.98R
LINCOLN        PTCLDY    66  63  90 N6        29.99F
FALLS CITY     CLEAR     70  69  97 NW5       29.94F
LAMONI         CLEAR     68  67  96 NW3       29.94S
DES MOINES     PTCLDY    72  67  84 NE10      29.94S

$$





USA.gov is the U.S. government's official web portal to all federal, state and local government web resources and services.